THY877 VCBI-LTFM

Flight info

Callsign THY877
Flight time 8h 30m
Altitude 34000
Route DEMON1D DEMON R461 KABSO/N0501F350 R461 BBB Z1 ISKEN/N0505F340 P628 VIKIT/N0498F360 P628 RK G202 ZB L750 BIROS DCT GODSI DCT DUDEG DCT RIKAD DCT KADVI DCT VELDT DCT ENRON DCT RANAH DCT MARAD DCT ZAMIR DCT KEMOR DCT DOLOS DCT MAMED DCT SAPAR DCT BIBIM DCT MAHYM A477 BABUM DCT TUGTA DCT TUNEK/N0483F380 DCT RODAR N644 LAGAS DCT SARPI UM10 OLUPO DCT CRM UM688 EKSUK UL852 TIVUG UM10 HAKAN/N0492F280 N644 GUMRU T315 NUGBA
Aircraft B77W/H-SDE1E2E3FGHIJ2J3J4J5M1RWXY/LB1D1

Departure

Time 2026-05-05 11:07
Airport Bandaranaike International Colombo Airport (VCBI)

Arrival

Time 2026-05-05 19:38
Airport İstanbul Airport (LTFM)
Time Latitude Longitude Altitude Speed Heading
2026-05-05 10:05 7.17664 79.88541 55 ft 0 kts 218°
2026-05-05 10:55 7.17664 79.88542 55 ft 1 kts 218°
2026-05-05 10:55 7.17676 79.88551 55 ft 2 kts 218°
2026-05-05 10:56 7.17688 79.88560 55 ft 2 kts 218°
2026-05-05 10:56 7.17699 79.88569 55 ft 2 kts 218°
2026-05-05 10:56 7.17711 79.88578 55 ft 2 kts 224°
2026-05-05 10:56 7.17719 79.88590 56 ft 2 kts 248°
2026-05-05 10:57 7.17723 79.88604 56 ft 2 kts 268°
2026-05-05 10:57 7.17722 79.88613 56 ft 2 kts 280°
2026-05-05 10:57 7.17718 79.88628 56 ft 2 kts 300°
2026-05-05 10:57 7.17713 79.88634 56 ft 0 kts 308°
2026-05-05 11:00 7.17714 79.88634 56 ft 0 kts 308°
2026-05-05 11:00 7.17726 79.88617 56 ft 5 kts 306°
2026-05-05 11:00 7.17759 79.88572 55 ft 10 kts 306°
2026-05-05 11:00 7.17810 79.88504 54 ft 12 kts 307°
2026-05-05 11:01 7.17861 79.88445 52 ft 10 kts 329°
2026-05-05 11:01 7.17924 79.88460 51 ft 9 kts 38°
2026-05-05 11:01 7.17974 79.88499 51 ft 8 kts 37°
2026-05-05 11:01 7.18032 79.88542 51 ft 11 kts 37°
2026-05-05 11:02 7.18102 79.88595 52 ft 13 kts 37°
2026-05-05 11:02 7.18185 79.88658 53 ft 16 kts 37°
2026-05-05 11:02 7.18289 79.88739 53 ft 20 kts 40°
2026-05-05 11:02 7.18407 79.88830 53 ft 20 kts 37°
2026-05-05 11:03 7.18516 79.88912 53 ft 18 kts 38°
2026-05-05 11:03 7.18612 79.88986 52 ft 16 kts 37°
2026-05-05 11:03 7.18702 79.89055 50 ft 15 kts 37°
2026-05-05 11:03 7.18785 79.89118 49 ft 15 kts 37°
2026-05-05 11:04 7.18874 79.89188 48 ft 16 kts 37°
2026-05-05 11:04 7.18963 79.89256 48 ft 14 kts 37°
2026-05-05 11:04 7.19041 79.89315 47 ft 13 kts 37°
2026-05-05 11:04 7.19118 79.89374 46 ft 13 kts 37°
2026-05-05 11:05 7.19194 79.89420 45 ft 11 kts
2026-05-05 11:05 7.19249 79.89376 46 ft 10 kts 307°
2026-05-05 11:05 7.19289 79.89323 48 ft 7 kts 307°
2026-05-05 11:05 7.19308 79.89289 48 ft 4 kts 275°
2026-05-05 11:06 7.19302 79.89279 48 ft 0 kts 217°
2026-05-05 11:06 7.19251 79.89243 49 ft 34 kts 215°
2026-05-05 11:06 7.18866 79.88950 52 ft 104 kts 218°
2026-05-05 11:06 7.18106 79.88367 51 ft 166 kts 218°
2026-05-05 11:07 7.17117 79.87599 386 ft 190 kts 218°
2026-05-05 11:07 7.16017 79.86775 1012 ft 202 kts 220°
2026-05-05 11:07 7.15106 79.85687 1800 ft 205 kts 247°
2026-05-05 11:07 7.14831 79.84441 2903 ft 181 kts 274°
2026-05-05 11:08 7.15201 79.83182 3135 ft 197 kts 296°
2026-05-05 11:08 7.15847 79.81918 3510 ft 206 kts 297°
2026-05-05 11:08 7.16641 79.80701 3870 ft 218 kts 314°
2026-05-05 11:08 7.17925 79.79791 4053 ft 239 kts 336°
2026-05-05 11:09 7.19642 79.79492 4264 ft 263 kts
2026-05-05 11:09 7.21393 79.80100 4772 ft 274 kts 34°
2026-05-05 11:09 7.22873 79.81311 5595 ft 273 kts 39°
2026-05-05 11:09 7.24332 79.82513 6335 ft 273 kts 33°
2026-05-05 11:10 7.26082 79.83235 6981 ft 275 kts
2026-05-05 11:10 7.27992 79.83118 7613 ft 278 kts 342°
2026-05-05 11:10 7.29710 79.82227 8246 ft 281 kts 327°
2026-05-05 11:10 7.31323 79.81120 8910 ft 285 kts 326°
2026-05-05 11:11 7.32984 79.79964 9544 ft 290 kts 326°
2026-05-05 11:11 7.34634 79.78814 10145 ft 294 kts 326°
2026-05-05 11:11 7.36337 79.77627 10673 ft 303 kts 326°
2026-05-05 11:11 7.38123 79.76382 10902 ft 322 kts 325°
2026-05-05 11:12 7.40027 79.75053 11193 ft 340 kts 325°
2026-05-05 11:12 7.42021 79.73663 11502 ft 358 kts 325°
2026-05-05 11:12 7.44126 79.72193 11838 ft 374 kts 324°
2026-05-05 11:12 7.46301 79.70675 12120 ft 391 kts 324°
2026-05-05 11:13 7.48594 79.69074 12426 ft 407 kts 324°
2026-05-05 11:13 7.50969 79.67416 13020 ft 414 kts 324°
2026-05-05 11:13 7.53318 79.65776 13727 ft 417 kts 325°
2026-05-05 11:13 7.55714 79.64103 14439 ft 421 kts 324°
2026-05-05 11:14 7.58144 79.62406 15157 ft 424 kts 324°
2026-05-05 11:14 7.60582 79.60703 15822 ft 429 kts 324°
2026-05-05 11:14 7.63030 79.58993 16496 ft 432 kts 324°
2026-05-05 11:14 7.65511 79.57259 17114 ft 436 kts 324°
2026-05-05 11:15 7.68033 79.55498 17697 ft 442 kts 323°
2026-05-05 11:15 7.70563 79.53729 18300 ft 445 kts 324°
2026-05-05 11:15 7.73128 79.51936 18931 ft 448 kts 324°
2026-05-05 11:15 7.75668 79.50160 19530 ft 451 kts 324°
2026-05-05 11:16 7.78285 79.48330 20098 ft 455 kts 324°
2026-05-05 11:16 7.80900 79.46501 20642 ft 458 kts 324°
2026-05-05 11:16 7.83521 79.44668 21187 ft 461 kts 324°
2026-05-05 11:16 7.86167 79.42817 21706 ft 465 kts 324°
2026-05-05 11:17 7.88819 79.40962 22215 ft 468 kts 324°
2026-05-05 11:17 7.91521 79.39071 22740 ft 470 kts 324°
2026-05-05 11:17 7.94199 79.37196 23228 ft 474 kts 324°
2026-05-05 11:17 7.96927 79.35288 23694 ft 477 kts 324°
2026-05-05 11:18 7.99673 79.33365 24127 ft 482 kts 324°
2026-05-05 11:18 8.02437 79.31430 24542 ft 487 kts 324°
2026-05-05 11:18 8.05255 79.29456 25006 ft 490 kts 325°
2026-05-05 11:18 8.08026 79.27515 25472 ft 493 kts 325°
2026-05-05 11:19 8.10881 79.25515 25890 ft 497 kts 325°
2026-05-05 11:19 8.13736 79.23515 26258 ft 502 kts 325°
2026-05-05 11:19 8.16601 79.21508 26640 ft 506 kts 325°
2026-05-05 11:19 8.19508 79.19470 27113 ft 508 kts 325°
2026-05-05 11:20 8.22421 79.17429 27558 ft 511 kts 325°
2026-05-05 11:20 8.25365 79.15364 27974 ft 514 kts 325°
2026-05-05 11:20 8.28307 79.13302 28388 ft 518 kts 325°
2026-05-05 11:20 8.31264 79.11227 28748 ft 522 kts 325°
2026-05-05 11:21 8.34270 79.09119 29286 ft 522 kts 325°
2026-05-05 11:21 8.37219 79.07050 30062 ft 517 kts 325°
2026-05-05 11:21 8.40130 79.05006 30958 ft 509 kts 325°
2026-05-05 11:21 8.43031 79.02970 31809 ft 502 kts 325°
2026-05-05 11:22 8.45886 79.00966 32525 ft 497 kts 326°
2026-05-05 11:22 8.48705 78.98986 33185 ft 494 kts 326°
2026-05-05 11:22 8.51547 78.96991 33678 ft 495 kts 326°
2026-05-05 11:22 8.54368 78.95010 33781 ft 498 kts 326°
2026-05-05 11:23 8.57220 78.93019 33780 ft 496 kts 327°
2026-05-05 11:23 8.62999 78.89182 33786 ft 495 kts 327°
2026-05-05 11:24 8.68765 78.85362 33790 ft 496 kts 327°
2026-05-05 11:24 8.74566 78.81511 33788 ft 501 kts 327°
2026-05-05 11:25 8.80363 78.77656 33783 ft 499 kts 327°
2026-05-05 11:25 8.86168 78.73792 33784 ft 496 kts 327°
2026-05-05 11:26 8.91932 78.69953 33776 ft 494 kts 327°
2026-05-05 11:26 8.97672 78.66129 33783 ft 495 kts 327°
2026-05-05 11:27 9.03414 78.62300 33774 ft 494 kts 327°
2026-05-05 11:27 9.09150 78.58475 33776 ft 495 kts 327°
2026-05-05 11:28 9.14908 78.54633 33775 ft 497 kts 327°
2026-05-05 11:28 9.20727 78.50748 33774 ft 503 kts 327°
2026-05-05 11:29 9.26607 78.46822 33776 ft 503 kts 327°
2026-05-05 11:29 9.32417 78.42941 33773 ft 504 kts 327°
2026-05-05 11:30 9.38289 78.39015 33771 ft 503 kts 327°
2026-05-05 11:30 9.44135 78.35107 33770 ft 505 kts 327°
2026-05-05 11:31 9.49994 78.31187 33765 ft 506 kts 327°
2026-05-05 11:31 9.55899 78.27236 33769 ft 506 kts 327°
2026-05-05 11:32 9.61793 78.23290 33771 ft 508 kts 327°
2026-05-05 11:32 9.67679 78.19348 33775 ft 508 kts 327°
2026-05-05 11:33 9.73559 78.15408 33775 ft 508 kts 327°
2026-05-05 11:33 9.79491 78.11432 33776 ft 508 kts 327°
2026-05-05 11:34 9.85218 78.07199 33784 ft 510 kts 320°
2026-05-05 11:34 9.90624 78.02540 33782 ft 511 kts 320°
2026-05-05 11:35 9.96027 77.97872 33783 ft 512 kts 320°
2026-05-05 11:35 10.01437 77.93199 33796 ft 512 kts 320°
2026-05-05 11:36 10.06855 77.88519 33838 ft 512 kts 320°
2026-05-05 11:36 10.12301 77.83813 33863 ft 510 kts 320°
2026-05-05 11:37 10.17711 77.79137 33861 ft 511 kts 320°
2026-05-05 11:37 10.23115 77.74464 33852 ft 512 kts 320°
2026-05-05 11:38 10.28517 77.69791 33895 ft 511 kts 320°
2026-05-05 11:38 10.33937 77.65100 33918 ft 511 kts 319°
2026-05-05 11:39 10.39344 77.60418 33927 ft 510 kts 320°
2026-05-05 11:39 10.44756 77.55730 33905 ft 511 kts 319°
2026-05-05 11:40 10.50161 77.51046 33867 ft 510 kts 319°
2026-05-05 11:40 10.55552 77.46371 33859 ft 510 kts 320°
2026-05-05 11:41 10.60911 77.41722 33869 ft 509 kts 319°
2026-05-05 11:41 10.66339 77.37012 33859 ft 510 kts 319°
2026-05-05 11:42 10.71712 77.32346 33852 ft 510 kts 319°
2026-05-05 11:42 10.77111 77.27656 33855 ft 510 kts 319°
2026-05-05 11:43 10.82493 77.22978 33856 ft 508 kts 319°
2026-05-05 11:43 10.87874 77.18298 33853 ft 510 kts 319°
2026-05-05 11:44 10.93260 77.13612 33854 ft 511 kts 319°
2026-05-05 11:44 10.98657 77.08915 33855 ft 509 kts 319°
2026-05-05 11:45 11.04246 77.04517 33861 ft 509 kts 330°
2026-05-05 11:45 11.10563 77.01273 33864 ft 509 kts 334°
2026-05-05 11:46 11.16949 76.98136 33860 ft 507 kts 334°
2026-05-05 11:46 11.23312 76.95006 33867 ft 509 kts 334°
2026-05-05 11:47 11.29676 76.91871 33887 ft 506 kts 334°
2026-05-05 11:47 11.36030 76.88739 33912 ft 507 kts 334°
2026-05-05 11:48 11.45561 76.84036 33981 ft 507 kts 334°
2026-05-05 11:48 11.51886 76.80913 34029 ft 506 kts 334°
2026-05-05 11:49 11.58256 76.77765 34032 ft 507 kts 334°
2026-05-05 11:49 11.64582 76.74638 34029 ft 505 kts 334°
2026-05-05 11:50 11.70921 76.71503 34009 ft 504 kts 334°
2026-05-05 11:50 11.77230 76.68381 33986 ft 506 kts 334°
2026-05-05 11:51 11.83592 76.65231 33984 ft 505 kts 334°
2026-05-05 11:51 11.89929 76.62092 33977 ft 505 kts 334°
2026-05-05 11:52 11.96234 76.58967 33964 ft 504 kts 334°
2026-05-05 11:52 12.02574 76.55823 33956 ft 505 kts 334°
2026-05-05 11:53 12.08886 76.52692 33960 ft 504 kts 334°
2026-05-05 11:53 12.15211 76.49551 33959 ft 504 kts 334°
2026-05-05 11:54 12.21516 76.46429 33960 ft 504 kts 334°
2026-05-05 11:54 12.27839 76.43320 33962 ft 506 kts 334°
2026-05-05 11:55 12.34161 76.40207 33963 ft 504 kts 334°
2026-05-05 11:55 12.40502 76.37083 33962 ft 504 kts 334°
2026-05-05 11:56 12.46836 76.33960 33970 ft 504 kts 334°
2026-05-05 11:56 12.53142 76.30849 33973 ft 503 kts 334°
2026-05-05 11:57 12.59483 76.27719 33976 ft 504 kts 334°
2026-05-05 11:57 12.65772 76.24613 33981 ft 503 kts 334°
2026-05-05 11:58 12.72076 76.21498 33988 ft 503 kts 334°
2026-05-05 11:58 12.78396 76.18373 33992 ft 504 kts 334°
2026-05-05 11:59 12.84728 76.15241 33998 ft 504 kts 333°
2026-05-05 11:59 12.91050 76.12111 33998 ft 502 kts 333°
2026-05-05 12:00 12.97372 76.08980 34012 ft 503 kts 334°
2026-05-05 12:00 13.03646 76.05871 34021 ft 502 kts 334°
2026-05-05 12:01 13.09958 76.02741 34016 ft 502 kts 334°
2026-05-05 12:01 13.16253 75.99616 34008 ft 501 kts 334°
2026-05-05 12:02 13.22509 75.96508 34002 ft 500 kts 333°
2026-05-05 12:02 13.28800 75.93381 33994 ft 500 kts 333°
2026-05-05 12:03 13.35030 75.90283 34011 ft 498 kts 333°
2026-05-05 12:03 13.41295 75.87166 34045 ft 498 kts 333°
2026-05-05 12:04 13.47511 75.84071 34078 ft 498 kts 333°
2026-05-05 12:04 13.53744 75.80966 34094 ft 496 kts 333°
2026-05-05 12:05 13.59950 75.77873 34069 ft 496 kts 333°
2026-05-05 12:05 13.66165 75.74774 34038 ft 496 kts 333°
2026-05-05 12:06 13.72390 75.71667 33986 ft 496 kts 333°
2026-05-05 12:06 13.78607 75.68563 33945 ft 495 kts 333°
2026-05-05 12:07 13.84787 75.65475 33936 ft 495 kts 333°
2026-05-05 12:07 13.90990 75.62374 33929 ft 494 kts 334°
2026-05-05 12:08 13.97198 75.59269 33925 ft 495 kts 334°
2026-05-05 12:08 14.03372 75.56179 33925 ft 494 kts 333°
2026-05-05 12:09 14.09086 75.52258 33929 ft 493 kts 317°
2026-05-05 12:09 14.13577 75.46947 33940 ft 493 kts 308°
2026-05-05 12:10 14.17795 75.41386 33940 ft 492 kts 308°
2026-05-05 12:10 14.21994 75.35841 33940 ft 492 kts 308°
2026-05-05 12:11 14.26222 75.30253 33942 ft 494 kts 307°
2026-05-05 12:11 14.30433 75.24683 33940 ft 493 kts 307°
2026-05-05 12:12 14.34622 75.19138 33934 ft 492 kts 307°
2026-05-05 12:12 14.38812 75.13587 33928 ft 493 kts 308°
2026-05-05 12:13 14.43018 75.08011 33928 ft 493 kts 308°
2026-05-05 12:13 14.47243 75.02406 33926 ft 493 kts 308°
2026-05-05 12:14 14.51464 74.96805 33914 ft 494 kts 308°
2026-05-05 12:14 14.55669 74.91219 33904 ft 493 kts 307°
2026-05-05 12:15 14.59873 74.85630 33896 ft 493 kts 307°
2026-05-05 12:15 14.64048 74.80077 33890 ft 493 kts 307°
2026-05-05 12:16 14.68266 74.74462 33884 ft 493 kts 307°
2026-05-05 12:16 14.72481 74.68874 33863 ft 493 kts 308°
2026-05-05 12:17 14.76665 74.63333 33850 ft 493 kts 308°
2026-05-05 12:17 14.80886 74.57739 33847 ft 494 kts 308°
2026-05-05 12:18 14.85104 74.52142 33856 ft 494 kts 308°
2026-05-05 12:18 14.89316 74.46512 33870 ft 494 kts 307°
2026-05-05 12:19 14.93493 74.40888 33886 ft 493 kts 307°
2026-05-05 12:19 14.97667 74.35268 33899 ft 493 kts 307°
2026-05-05 12:20 15.01828 74.29662 33911 ft 494 kts 307°
2026-05-05 12:20 15.06027 74.24003 33905 ft 495 kts 307°
2026-05-05 12:21 15.10202 74.18371 33884 ft 495 kts 307°
2026-05-05 12:21 15.14378 74.12734 33865 ft 495 kts 307°
2026-05-05 12:22 15.18566 74.07078 33844 ft 495 kts 307°
2026-05-05 12:22 15.22744 74.01430 33824 ft 494 kts 307°
2026-05-05 12:23 15.26910 73.95795 33814 ft 495 kts 307°
2026-05-05 12:23 15.31090 73.90136 33814 ft 495 kts 307°
2026-05-05 12:24 15.35296 73.84458 33812 ft 495 kts 309°
2026-05-05 12:24 15.40332 73.79696 33818 ft 496 kts 326°
2026-05-05 12:25 15.46314 73.76119 33826 ft 496 kts 330°
2026-05-05 12:25 15.52352 73.72647 33825 ft 495 kts 330°
2026-05-05 12:26 15.58372 73.69180 33830 ft 495 kts 330°
2026-05-05 12:26 15.64423 73.65691 33834 ft 495 kts 330°
2026-05-05 12:27 15.70429 73.62224 33838 ft 495 kts 330°
2026-05-05 12:27 15.76438 73.58752 33837 ft 495 kts 330°
2026-05-05 12:28 15.82467 73.55267 33835 ft 494 kts 330°
2026-05-05 12:28 15.88470 73.51794 33837 ft 494 kts 330°
2026-05-05 12:29 15.94444 73.48209 33836 ft 494 kts 328°
2026-05-05 12:29 16.00303 73.44525 33836 ft 493 kts 328°
2026-05-05 12:30 16.06194 73.40828 33837 ft 493 kts 328°
2026-05-05 12:30 16.12085 73.37135 33836 ft 492 kts 328°
2026-05-05 12:31 16.17957 73.33455 33833 ft 493 kts 328°
2026-05-05 12:31 16.23791 73.29799 33832 ft 491 kts 328°
2026-05-05 12:32 16.29666 73.26114 33832 ft 491 kts 328°
2026-05-05 12:32 16.35604 73.22639 33837 ft 489 kts 334°
2026-05-05 12:33 16.41763 73.19585 33827 ft 488 kts 334°
2026-05-05 12:33 16.47833 73.16547 33831 ft 487 kts 334°
2026-05-05 12:34 16.53955 73.13457 33828 ft 485 kts 333°
2026-05-05 12:34 16.60046 73.10368 33826 ft 487 kts 332°
2026-05-05 12:35 16.65947 73.06969 33826 ft 485 kts 330°
2026-05-05 12:35 16.71865 73.03495 33827 ft 487 kts 330°
2026-05-05 12:36 16.77755 73.00050 33825 ft 485 kts 330°
2026-05-05 12:36 16.83617 72.96625 33827 ft 484 kts 330°
2026-05-05 12:37 16.89512 72.93184 33828 ft 483 kts 330°
2026-05-05 12:37 16.95354 72.89772 33826 ft 482 kts 330°
2026-05-05 12:38 17.01217 72.86347 33827 ft 482 kts 330°
2026-05-05 12:38 17.07281 72.83314 33826 ft 485 kts 341°
2026-05-05 12:39 17.13907 72.82117 33824 ft 488 kts 358°
2026-05-05 12:39 17.20743 72.82249 33829 ft 489 kts
2026-05-05 12:40 17.27544 72.82443 33829 ft 488 kts
2026-05-05 12:40 17.34306 72.82632 33829 ft 487 kts
2026-05-05 12:41 17.41097 72.82819 33830 ft 488 kts 360°
2026-05-05 12:41 17.47878 72.83005 33829 ft 488 kts 360°
2026-05-05 12:42 17.54681 72.83191 33831 ft 488 kts 360°
2026-05-05 12:42 17.61478 72.83376 33830 ft 488 kts 360°
2026-05-05 12:43 17.68264 72.83562 33829 ft 487 kts 360°
2026-05-05 12:43 17.75063 72.83747 33829 ft 487 kts 360°
2026-05-05 12:44 17.81867 72.83933 33833 ft 487 kts 360°
2026-05-05 12:44 17.88671 72.84119 33842 ft 488 kts 360°
2026-05-05 12:45 17.95446 72.84304 33845 ft 488 kts 360°
2026-05-05 12:45 18.02259 72.84490 33842 ft 487 kts 359°
2026-05-05 12:46 18.09009 72.84675 33839 ft 488 kts 359°
2026-05-05 12:46 18.15846 72.84862 33841 ft 489 kts 359°
2026-05-05 12:47 18.22637 72.85049 33827 ft 488 kts 359°
2026-05-05 12:47 18.29440 72.85236 33822 ft 488 kts 359°
2026-05-05 12:48 18.36236 72.85422 33821 ft 487 kts 359°
2026-05-05 12:48 18.43011 72.85609 33826 ft 487 kts 359°
2026-05-05 12:49 18.49791 72.85795 33826 ft 488 kts 359°
2026-05-05 12:49 18.56610 72.85983 33826 ft 488 kts 359°
2026-05-05 12:50 18.63391 72.86169 33824 ft 488 kts 359°
2026-05-05 12:50 18.70198 72.86357 33825 ft 487 kts 359°
2026-05-05 12:51 18.76957 72.86543 33826 ft 487 kts 359°
2026-05-05 12:51 18.83784 72.86732 33828 ft 488 kts 359°
2026-05-05 12:52 18.90529 72.86919 33830 ft 487 kts 359°
2026-05-05 12:52 18.97359 72.87108 33827 ft 487 kts 359°
2026-05-05 12:53 19.04142 72.87296 33827 ft 488 kts 359°
2026-05-05 12:53 19.10921 72.87498 33829 ft 488 kts 360°
2026-05-05 12:54 19.21120 72.87944 33829 ft 487 kts 360°
2026-05-05 12:55 19.27882 72.88238 33829 ft 488 kts 359°
2026-05-05 12:55 19.34672 72.88532 33830 ft 488 kts 360°
2026-05-05 12:56 19.41480 72.88824 33828 ft 488 kts 359°
2026-05-05 12:56 19.48300 72.89118 33828 ft 488 kts 359°
2026-05-05 12:57 19.55097 72.89410 33827 ft 488 kts 359°
2026-05-05 12:57 19.61875 72.89702 33827 ft 488 kts 359°
2026-05-05 12:58 19.68654 72.89994 33827 ft 487 kts 359°
2026-05-05 12:58 19.75434 72.90286 33828 ft 487 kts 359°
2026-05-05 12:59 19.82207 72.90578 33830 ft 488 kts 359°
2026-05-05 12:59 19.89052 72.90873 33834 ft 489 kts 359°
2026-05-05 13:00 19.99212 72.91312 33832 ft 489 kts 359°
2026-05-05 13:01 20.12806 72.91901 33820 ft 487 kts 359°
2026-05-05 13:01 20.19587 72.92194 33814 ft 488 kts 359°
2026-05-05 13:02 20.26393 72.92489 33808 ft 488 kts 359°
2026-05-05 13:02 20.33162 72.92783 33808 ft 488 kts 359°
2026-05-05 13:03 20.39950 72.93078 33811 ft 487 kts 359°
2026-05-05 13:03 20.46761 72.93374 33810 ft 487 kts 359°
2026-05-05 13:04 20.53518 72.93668 33814 ft 487 kts 359°
2026-05-05 13:04 20.60272 72.93961 33815 ft 487 kts 359°
2026-05-05 13:05 20.67068 72.94257 33813 ft 488 kts 359°
2026-05-05 13:05 20.73863 72.94554 33812 ft 487 kts 359°
2026-05-05 13:06 20.80620 72.94823 33809 ft 486 kts 358°
2026-05-05 13:06 20.87410 72.95067 33808 ft 485 kts 359°
2026-05-05 13:07 20.94161 72.95310 33807 ft 486 kts 359°
2026-05-05 13:07 21.00920 72.95556 33807 ft 487 kts 359°
2026-05-05 13:08 21.07703 72.95803 33799 ft 486 kts 359°
2026-05-05 13:08 21.14469 72.96050 33804 ft 486 kts 359°
2026-05-05 13:09 21.21249 72.96321 33791 ft 485 kts 359°
2026-05-05 13:09 21.27996 72.96680 33785 ft 485 kts 359°
2026-05-05 13:10 21.34745 72.97037 33782 ft 486 kts 359°
2026-05-05 13:10 21.41522 72.97394 33781 ft 486 kts 359°
2026-05-05 13:11 21.48281 72.97748 33784 ft 485 kts 359°
2026-05-05 13:11 21.55049 72.98103 33782 ft 485 kts 359°
2026-05-05 13:12 21.61716 72.99347 33781 ft 492 kts 13°
2026-05-05 13:12 21.68309 73.01469 33768 ft 492 kts 13°
2026-05-05 13:13 21.74853 73.03593 33764 ft 492 kts 13°
2026-05-05 13:13 21.81403 73.05717 33761 ft 492 kts 13°
2026-05-05 13:14 21.87982 73.07850 33763 ft 492 kts 13°
2026-05-05 13:14 21.94544 73.09980 33765 ft 493 kts 13°
2026-05-05 13:15 22.01110 73.12112 33767 ft 492 kts 13°
2026-05-05 13:15 22.07648 73.14238 33767 ft 491 kts 13°
2026-05-05 13:16 22.14203 73.16370 33772 ft 492 kts 13°
2026-05-05 13:16 22.20775 73.18510 33777 ft 491 kts 13°
2026-05-05 13:17 22.27305 73.20639 33785 ft 492 kts 13°
2026-05-05 13:17 22.33886 73.22716 33780 ft 490 kts
2026-05-05 13:18 22.40558 73.24235 33784 ft 488 kts
2026-05-05 13:18 22.47177 73.25709 33784 ft 489 kts
2026-05-05 13:19 22.53873 73.27206 33783 ft 488 kts
2026-05-05 13:19 22.60527 73.28696 33786 ft 488 kts
2026-05-05 13:20 22.67165 73.30187 33779 ft 488 kts
2026-05-05 13:20 22.73824 73.31683 33763 ft 487 kts
2026-05-05 13:21 22.80459 73.33176 33752 ft 488 kts
2026-05-05 13:21 22.87132 73.34679 33753 ft 487 kts
2026-05-05 13:22 22.93773 73.36176 33754 ft 488 kts
2026-05-05 13:22 23.00428 73.37678 33753 ft 487 kts
2026-05-05 13:23 23.07074 73.39180 33751 ft 489 kts
2026-05-05 13:23 23.13714 73.40682 33759 ft 487 kts
2026-05-05 13:24 23.20317 73.42178 33762 ft 486 kts
2026-05-05 13:24 23.26943 73.43679 33765 ft 486 kts
2026-05-05 13:25 23.33599 73.45190 33773 ft 486 kts
2026-05-05 13:25 23.40207 73.46690 33781 ft 486 kts
2026-05-05 13:26 23.46831 73.48196 33787 ft 486 kts
2026-05-05 13:26 23.53463 73.49706 33794 ft 485 kts
2026-05-05 13:27 23.60081 73.51213 33811 ft 485 kts
2026-05-05 13:27 23.66690 73.52721 33823 ft 485 kts
2026-05-05 13:28 23.73268 73.54222 33833 ft 485 kts
2026-05-05 13:28 23.79870 73.55731 33838 ft 484 kts
2026-05-05 13:29 23.86492 73.57246 33837 ft 484 kts
2026-05-05 13:29 23.93081 73.58755 33837 ft 485 kts
2026-05-05 13:30 23.99677 73.60266 33838 ft 485 kts
2026-05-05 13:30 24.06298 73.61786 33846 ft 484 kts
2026-05-05 13:31 24.12877 73.63298 33865 ft 482 kts
2026-05-05 13:31 24.19428 73.64804 33871 ft 483 kts
2026-05-05 13:32 24.26017 73.66320 33868 ft 485 kts
2026-05-05 13:32 24.32618 73.67842 33871 ft 483 kts
2026-05-05 13:33 24.39225 73.69360 33883 ft 483 kts
2026-05-05 13:33 24.45816 73.70863 33892 ft 485 kts
2026-05-05 13:34 24.52441 73.72377 33890 ft 482 kts
2026-05-05 13:34 24.58991 73.73874 33888 ft 483 kts
2026-05-05 13:35 24.65590 73.75385 33879 ft 483 kts
2026-05-05 13:35 24.72183 73.76897 33898 ft 482 kts
2026-05-05 13:36 24.78738 73.78400 33907 ft 483 kts
2026-05-05 13:36 24.85303 73.79890 33900 ft 481 kts
2026-05-05 13:37 24.91906 73.81385 33907 ft 483 kts
2026-05-05 13:37 24.98452 73.82870 33904 ft 480 kts
2026-05-05 13:38 25.05034 73.84364 33903 ft 483 kts
2026-05-05 13:38 25.11619 73.85863 33904 ft 481 kts
2026-05-05 13:39 25.18177 73.87355 33913 ft 484 kts
2026-05-05 13:39 25.24746 73.88854 33909 ft 478 kts
2026-05-05 13:40 25.31266 73.90340 33906 ft 481 kts
2026-05-05 13:40 25.37860 73.91847 33903 ft 481 kts
2026-05-05 13:41 25.44409 73.93345 33898 ft 482 kts
2026-05-05 13:41 25.50943 73.94841 33901 ft 480 kts
2026-05-05 13:42 25.57459 73.96335 33896 ft 479 kts
2026-05-05 13:42 25.64033 73.97842 33900 ft 482 kts
2026-05-05 13:43 25.70594 73.99351 33898 ft 479 kts
2026-05-05 13:43 25.77105 74.00848 33894 ft 478 kts
2026-05-05 13:44 25.83645 74.02341 33882 ft 481 kts
2026-05-05 13:44 25.90208 74.03833 33874 ft 480 kts
2026-05-05 13:45 25.96712 74.05314 33865 ft 478 kts
2026-05-05 13:45 26.03286 74.06811 33858 ft 480 kts
2026-05-05 13:46 26.09793 74.08296 33858 ft 479 kts
2026-05-05 13:46 26.16345 74.09792 33866 ft 481 kts
2026-05-05 13:47 26.22875 74.11288 33857 ft 477 kts
2026-05-05 13:47 26.29387 74.12778 33849 ft 480 kts
2026-05-05 13:48 26.35902 74.14273 33845 ft 475 kts
2026-05-05 13:48 26.42440 74.15456 33846 ft 469 kts 356°
2026-05-05 13:49 26.48819 74.14799 33837 ft 457 kts 341°
2026-05-05 13:49 26.54670 74.12275 33840 ft 446 kts 327°
2026-05-05 13:50 26.59596 74.08179 33837 ft 441 kts 313°
2026-05-05 13:50 26.63333 74.02837 33845 ft 437 kts 300°
2026-05-05 13:51 26.66269 73.96899 33837 ft 436 kts 298°
2026-05-05 13:51 26.69188 73.90954 33842 ft 437 kts 298°
2026-05-05 13:52 26.72106 73.85021 33834 ft 436 kts 299°
2026-05-05 13:52 26.75026 73.79102 33830 ft 438 kts 301°
2026-05-05 13:53 26.78758 73.73718 33844 ft 441 kts 314°
2026-05-05 13:53 26.80981 73.71355 34024 ft 445 kts 315°
2026-05-05 13:53 26.83242 73.68984 34538 ft 442 kts 315°
2026-05-05 13:54 26.85471 73.66647 35218 ft 436 kts 314°
2026-05-05 13:54 26.87655 73.64357 35747 ft 433 kts 314°
2026-05-05 13:54 26.92081 73.59708 35827 ft 435 kts 314°
2026-05-05 13:55 26.96484 73.55078 35827 ft 433 kts 314°
2026-05-05 13:55 27.00878 73.50454 35824 ft 434 kts 314°
2026-05-05 13:56 27.05266 73.45830 35825 ft 434 kts 314°
2026-05-05 13:56 27.09646 73.41209 35830 ft 433 kts 314°
2026-05-05 13:57 27.14022 73.36588 35830 ft 434 kts 314°
2026-05-05 13:57 27.18436 73.31921 35847 ft 434 kts 314°
2026-05-05 13:58 27.22817 73.27283 35844 ft 433 kts 314°
2026-05-05 13:58 27.27175 73.22665 35842 ft 434 kts 314°
2026-05-05 13:59 27.33751 73.15685 35842 ft 435 kts 314°
2026-05-05 14:00 27.39627 73.09440 35848 ft 434 kts 314°
2026-05-05 14:00 27.44717 73.04020 35854 ft 435 kts 314°
2026-05-05 14:01 27.49113 72.99335 35850 ft 434 kts 314°
2026-05-05 14:01 27.53492 72.94662 35846 ft 435 kts 314°
2026-05-05 14:02 27.57856 72.90000 35833 ft 434 kts 314°
2026-05-05 14:02 27.62247 72.85304 35822 ft 433 kts 314°
2026-05-05 14:03 27.66615 72.80627 35817 ft 436 kts 314°
2026-05-05 14:03 27.70984 72.75944 35812 ft 434 kts 314°
2026-05-05 14:04 27.75360 72.71247 35810 ft 433 kts 314°
2026-05-05 14:04 27.79717 72.66565 35803 ft 434 kts 314°
2026-05-05 14:05 27.84077 72.61875 35800 ft 433 kts 314°
2026-05-05 14:05 27.88451 72.57164 35800 ft 435 kts 314°
2026-05-05 14:06 27.92799 72.52475 35798 ft 433 kts 314°
2026-05-05 14:06 27.97165 72.47762 35794 ft 433 kts 314°
2026-05-05 14:07 28.01528 72.43046 35794 ft 434 kts 314°
2026-05-05 14:07 28.05864 72.38354 35795 ft 435 kts 314°
2026-05-05 14:08 28.10217 72.33639 35811 ft 433 kts 314°
2026-05-05 14:08 28.14584 72.28902 35822 ft 433 kts 314°
2026-05-05 14:09 28.18907 72.24207 35823 ft 432 kts 314°
2026-05-05 14:09 28.23263 72.19471 35819 ft 433 kts 314°
2026-05-05 14:10 28.27605 72.14745 35813 ft 433 kts 314°
2026-05-05 14:10 28.31949 72.10010 35801 ft 433 kts 314°
2026-05-05 14:11 28.36263 72.05304 35796 ft 431 kts 314°
2026-05-05 14:11 28.40592 72.00575 35793 ft 432 kts 314°
2026-05-05 14:12 28.44905 71.95857 35791 ft 431 kts 314°
2026-05-05 14:12 28.49233 71.91118 35790 ft 433 kts 314°
2026-05-05 14:13 28.53562 71.86372 35790 ft 431 kts 314°
2026-05-05 14:13 28.57850 71.81666 35790 ft 432 kts 314°
2026-05-05 14:14 28.62171 71.76917 35788 ft 431 kts 314°
2026-05-05 14:14 28.66488 71.72166 35785 ft 431 kts 314°
2026-05-05 14:15 28.70793 71.67425 35788 ft 430 kts 314°
2026-05-05 14:15 28.75092 71.62684 35793 ft 430 kts 314°
2026-05-05 14:16 28.79378 71.57949 35791 ft 432 kts 314°
2026-05-05 14:16 28.83656 71.53220 35787 ft 429 kts 314°
2026-05-05 14:17 28.87968 71.48447 35791 ft 431 kts 314°
2026-05-05 14:17 28.92259 71.43691 35796 ft 429 kts 314°
2026-05-05 14:18 28.96537 71.38944 35794 ft 431 kts 314°
2026-05-05 14:18 29.00793 71.34216 35802 ft 429 kts 314°
2026-05-05 14:19 29.05091 71.29435 35807 ft 430 kts 314°
2026-05-05 14:19 29.09349 71.24693 35804 ft 428 kts 314°
2026-05-05 14:20 29.13625 71.19925 35810 ft 428 kts 314°
2026-05-05 14:20 29.17880 71.15175 35801 ft 428 kts 314°
2026-05-05 14:21 29.22120 71.10435 35795 ft 428 kts 314°
2026-05-05 14:21 29.26363 71.05686 35800 ft 428 kts 314°
2026-05-05 14:22 29.30620 71.00916 35794 ft 427 kts 314°
2026-05-05 14:22 29.34872 70.96146 35798 ft 427 kts 314°
2026-05-05 14:23 29.39091 70.91407 35799 ft 426 kts 314°
2026-05-05 14:23 29.43327 70.86642 35796 ft 426 kts 314°
2026-05-05 14:24 29.47553 70.81883 35802 ft 426 kts 314°
2026-05-05 14:24 29.51778 70.77120 35800 ft 427 kts 314°
2026-05-05 14:25 29.55990 70.72365 35813 ft 426 kts 314°
2026-05-05 14:25 29.60217 70.67587 35816 ft 426 kts 314°
2026-05-05 14:26 29.64421 70.62830 35820 ft 425 kts 314°
2026-05-05 14:26 29.68632 70.58058 35832 ft 424 kts 314°
2026-05-05 14:27 29.72829 70.53297 35833 ft 424 kts 314°
2026-05-05 14:27 29.77031 70.48525 35841 ft 424 kts 314°
2026-05-05 14:28 29.81214 70.43766 35867 ft 424 kts 314°
2026-05-05 14:28 29.85381 70.39021 35883 ft 424 kts 314°
2026-05-05 14:29 29.89590 70.34223 35906 ft 424 kts 313°
2026-05-05 14:29 29.93774 70.29447 35925 ft 424 kts 313°
2026-05-05 14:30 29.97947 70.24677 35971 ft 422 kts 313°
2026-05-05 14:30 30.02113 70.19908 36029 ft 423 kts 314°
2026-05-05 14:31 30.06294 70.15118 36067 ft 422 kts 313°
2026-05-05 14:31 30.10442 70.10358 36115 ft 421 kts 313°
2026-05-05 14:32 30.14595 70.05589 36133 ft 422 kts 313°
2026-05-05 14:32 30.18735 70.00827 36162 ft 419 kts 313°
2026-05-05 14:33 30.22898 69.96032 36162 ft 422 kts 313°
2026-05-05 14:33 30.27027 69.91272 36171 ft 420 kts 313°
2026-05-05 14:34 30.31150 69.86510 36169 ft 420 kts 313°
2026-05-05 14:34 30.35290 69.81724 36182 ft 422 kts 313°
2026-05-05 14:35 30.39428 69.76935 36185 ft 420 kts 313°
2026-05-05 14:35 30.43549 69.72160 36182 ft 422 kts 313°
2026-05-05 14:36 30.47701 69.67342 36182 ft 420 kts 313°
2026-05-05 14:36 30.51824 69.62550 36175 ft 422 kts 313°
2026-05-05 14:37 30.55958 69.57741 36186 ft 420 kts 313°
2026-05-05 14:37 30.60107 69.52908 36184 ft 420 kts 313°
2026-05-05 14:38 30.64217 69.48114 36195 ft 421 kts 313°
2026-05-05 14:38 30.68337 69.43303 36206 ft 421 kts 313°
2026-05-05 14:39 30.72475 69.38464 36210 ft 419 kts 313°
2026-05-05 14:39 30.76579 69.33658 36230 ft 422 kts 313°
2026-05-05 14:40 30.80699 69.28828 36232 ft 421 kts 313°
2026-05-05 14:40 30.84836 69.23972 36231 ft 420 kts 313°
2026-05-05 14:41 30.88923 69.19167 36222 ft 420 kts 313°
2026-05-05 14:41 30.93054 69.14306 36223 ft 420 kts 312°
2026-05-05 14:42 30.97157 69.09471 36228 ft 420 kts 312°
2026-05-05 14:42 31.01240 69.04652 36231 ft 420 kts 312°
2026-05-05 14:43 31.05339 68.99809 36233 ft 419 kts 312°
2026-05-05 14:43 31.09449 68.94947 36249 ft 422 kts 312°
2026-05-05 14:44 31.13550 68.90089 36256 ft 420 kts 312°
2026-05-05 14:44 31.17653 68.85223 36297 ft 420 kts 312°
2026-05-05 14:45 31.21712 68.80402 36321 ft 417 kts 312°
2026-05-05 14:45 31.25799 68.75540 36338 ft 418 kts 313°
2026-05-05 14:46 31.29848 68.70718 36349 ft 417 kts 312°
2026-05-05 14:46 31.33910 68.65874 36345 ft 418 kts 312°
2026-05-05 14:47 31.37965 68.61034 36348 ft 416 kts 312°
2026-05-05 14:47 31.42007 68.56201 36360 ft 418 kts 312°
2026-05-05 14:48 31.46065 68.51344 36348 ft 416 kts 312°
2026-05-05 14:48 31.50128 68.46473 36367 ft 417 kts 312°
2026-05-05 14:49 31.54166 68.41627 36363 ft 416 kts 312°
2026-05-05 14:49 31.58219 68.36755 36353 ft 417 kts 312°
2026-05-05 14:50 31.62256 68.31897 36373 ft 416 kts 311°
2026-05-05 14:50 31.66264 68.27067 36380 ft 416 kts 312°
2026-05-05 14:51 31.70283 68.22219 36380 ft 416 kts 311°
2026-05-05 14:51 31.74290 68.17378 36391 ft 413 kts 312°
2026-05-05 14:52 31.78319 68.12503 36390 ft 417 kts 311°
2026-05-05 14:52 31.82353 68.07616 36402 ft 413 kts 312°
2026-05-05 14:53 31.86353 68.02763 36409 ft 414 kts 312°
2026-05-05 14:53 31.90374 67.97880 36419 ft 415 kts 311°
2026-05-05 14:54 31.94381 67.93006 36415 ft 414 kts 311°
2026-05-05 14:54 31.98381 67.88133 36422 ft 415 kts 312°
2026-05-05 14:55 32.02393 67.83242 36410 ft 414 kts 312°
2026-05-05 14:55 32.06400 67.78347 36403 ft 417 kts 312°
2026-05-05 14:56 32.10410 67.73444 36383 ft 414 kts 312°
2026-05-05 14:56 32.14415 67.68539 36389 ft 419 kts 312°
2026-05-05 14:57 32.18438 67.63606 36380 ft 415 kts 312°
2026-05-05 14:57 32.22474 67.58651 36373 ft 418 kts 312°
2026-05-05 14:58 32.26485 67.53719 36368 ft 417 kts 311°
2026-05-05 14:58 32.30510 67.48764 36384 ft 416 kts 311°
2026-05-05 14:59 32.34500 67.43845 36391 ft 417 kts 312°
2026-05-05 14:59 32.38512 67.38892 36407 ft 417 kts 312°
2026-05-05 15:00 32.41851 67.34765 36409 ft 416 kts 311°
2026-05-05 15:00 32.46496 67.29015 36426 ft 417 kts 311°
2026-05-05 15:01 32.50509 67.24041 36451 ft 414 kts 311°
2026-05-05 15:01 32.54485 67.19105 36424 ft 416 kts 311°
2026-05-05 15:02 32.58455 67.14169 36457 ft 417 kts 311°
2026-05-05 15:02 32.62464 67.09180 36475 ft 414 kts 311°
2026-05-05 15:03 32.66433 67.04233 36492 ft 415 kts 311°
2026-05-05 15:03 32.70415 66.99264 36540 ft 414 kts 311°
2026-05-05 15:04 32.74395 66.94287 36527 ft 416 kts 311°
2026-05-05 15:04 32.78345 66.89345 36536 ft 416 kts 311°
2026-05-05 15:05 32.84319 66.81853 36559 ft 416 kts 311°
2026-05-05 15:06 32.88269 66.76892 36558 ft 416 kts 311°
2026-05-05 15:06 32.92245 66.71892 36512 ft 414 kts 310°
2026-05-05 15:07 32.96233 66.66867 36531 ft 419 kts 311°
2026-05-05 15:07 33.00209 66.61854 36524 ft 415 kts 311°
2026-05-05 15:08 33.04153 66.56871 36499 ft 417 kts 311°
2026-05-05 15:08 33.08132 66.51839 36508 ft 418 kts 311°
2026-05-05 15:09 33.12110 66.46800 36525 ft 418 kts 311°
2026-05-05 15:09 33.16079 66.41766 36510 ft 417 kts 311°
2026-05-05 15:10 33.20058 66.36711 36499 ft 418 kts 311°
2026-05-05 15:10 33.24056 66.31626 36503 ft 419 kts 311°
2026-05-05 15:11 33.28040 66.26551 36446 ft 419 kts 310°
2026-05-05 15:11 33.31999 66.21500 36449 ft 418 kts 311°
2026-05-05 15:12 33.35981 66.16412 36432 ft 421 kts 310°
2026-05-05 15:12 33.39972 66.11307 36424 ft 420 kts 311°
2026-05-05 15:13 33.43964 66.06193 36432 ft 423 kts 311°
2026-05-05 15:13 33.47979 66.01041 36458 ft 420 kts 310°
2026-05-05 15:14 33.51978 65.95903 36447 ft 422 kts 310°
2026-05-05 15:14 33.55945 65.90798 36457 ft 421 kts 310°
2026-05-05 15:15 33.59942 65.85648 36466 ft 423 kts 310°
2026-05-05 15:15 33.63921 65.80513 36484 ft 420 kts 310°
2026-05-05 15:16 33.67892 65.75381 36489 ft 421 kts 311°
2026-05-05 15:16 33.71891 65.70205 36488 ft 422 kts 310°
2026-05-05 15:17 33.75874 65.65042 36504 ft 420 kts 310°
2026-05-05 15:17 33.79881 65.59840 36533 ft 425 kts 310°
2026-05-05 15:18 33.83843 65.54690 36520 ft 421 kts 310°
2026-05-05 15:18 33.87825 65.49506 36537 ft 422 kts 310°
2026-05-05 15:19 33.91811 65.44308 36545 ft 424 kts 310°
2026-05-05 15:19 33.95816 65.39078 36537 ft 422 kts 310°
2026-05-05 15:20 33.99780 65.33894 36549 ft 424 kts 310°
2026-05-05 15:20 34.03776 65.28661 36547 ft 424 kts 310°
2026-05-05 15:21 34.07750 65.23449 36554 ft 425 kts 310°
2026-05-05 15:21 34.11747 65.18197 36552 ft 425 kts 310°
2026-05-05 15:22 34.15750 65.12931 36554 ft 425 kts 310°
2026-05-05 15:22 34.19731 65.07686 36552 ft 424 kts 310°
2026-05-05 15:23 34.23709 65.02436 36546 ft 427 kts 310°
2026-05-05 15:23 34.27696 64.97167 36544 ft 424 kts 310°
2026-05-05 15:24 34.31679 64.91895 36533 ft 425 kts 310°
2026-05-05 15:24 34.35691 64.86577 36526 ft 427 kts 310°
2026-05-05 15:25 34.39665 64.81302 36528 ft 426 kts 310°
2026-05-05 15:25 34.43662 64.75987 36515 ft 428 kts 310°
2026-05-05 15:26 34.47683 64.70632 36520 ft 427 kts 310°
2026-05-05 15:26 34.51666 64.65320 36502 ft 428 kts 310°
2026-05-05 15:27 34.55669 64.59973 36501 ft 428 kts 310°
2026-05-05 15:27 34.59682 64.54604 36493 ft 429 kts 310°
2026-05-05 15:28 34.63660 64.49274 36478 ft 430 kts 310°
2026-05-05 15:28 34.67679 64.43881 36470 ft 428 kts 310°
2026-05-05 15:29 34.71653 64.38539 36444 ft 429 kts 310°
2026-05-05 15:29 34.75682 64.33115 36435 ft 430 kts 309°
2026-05-05 15:30 34.79682 64.27721 36419 ft 430 kts 309°
2026-05-05 15:30 34.83680 64.22323 36399 ft 430 kts 310°
2026-05-05 15:31 34.87672 64.16924 36352 ft 432 kts 309°
2026-05-05 15:31 34.91684 64.11489 36335 ft 433 kts 309°
2026-05-05 15:32 34.95717 64.06016 36293 ft 432 kts 310°
2026-05-05 15:32 34.99718 64.00580 36247 ft 431 kts 310°
2026-05-05 15:33 35.03708 63.95150 36221 ft 433 kts 309°
2026-05-05 15:33 35.07740 63.89653 36228 ft 433 kts 309°
2026-05-05 15:34 35.11733 63.84201 36221 ft 433 kts 310°
2026-05-05 15:34 35.15756 63.78699 36209 ft 437 kts 309°
2026-05-05 15:35 35.19792 63.73170 36175 ft 436 kts 309°
2026-05-05 15:35 35.23823 63.67640 36128 ft 436 kts 309°
2026-05-05 15:36 35.27846 63.62111 36122 ft 436 kts 310°
2026-05-05 15:36 35.31889 63.56546 36121 ft 436 kts 310°
2026-05-05 15:37 35.35913 63.50999 36103 ft 436 kts 309°
2026-05-05 15:37 35.39938 63.45439 36095 ft 437 kts 310°
2026-05-05 15:38 35.43977 63.39853 36083 ft 437 kts 309°
2026-05-05 15:38 35.47990 63.34293 36078 ft 438 kts 309°
2026-05-05 15:39 35.52020 63.28701 36083 ft 438 kts 309°
2026-05-05 15:39 35.56064 63.23080 36054 ft 439 kts 309°
2026-05-05 15:40 35.59879 63.17305 36039 ft 438 kts 306°
2026-05-05 15:40 35.63551 63.11374 36017 ft 437 kts 305°
2026-05-05 15:41 35.67202 63.05445 35991 ft 436 kts 305°
2026-05-05 15:41 35.70864 62.99473 35975 ft 438 kts 305°
2026-05-05 15:42 35.74522 62.93492 35971 ft 438 kts 305°
2026-05-05 15:42 35.78169 62.87515 35982 ft 437 kts 305°
2026-05-05 15:43 35.81823 62.81515 35973 ft 439 kts 305°
2026-05-05 15:43 35.85499 62.75467 35971 ft 440 kts 305°
2026-05-05 15:44 35.89155 62.69441 35962 ft 440 kts 305°
2026-05-05 15:44 35.92810 62.63406 35957 ft 442 kts 305°
2026-05-05 15:45 35.96474 62.57346 35955 ft 440 kts 305°
2026-05-05 15:45 36.00103 62.51332 35944 ft 442 kts 305°
2026-05-05 15:46 36.03771 62.45244 35950 ft 440 kts 305°
2026-05-05 15:46 36.07418 62.39179 35955 ft 441 kts 305°
2026-05-05 15:47 36.11057 62.33117 35966 ft 441 kts 304°
2026-05-05 15:47 36.14685 62.27061 35971 ft 440 kts 304°
2026-05-05 15:48 36.18332 62.20966 35982 ft 441 kts 304°
2026-05-05 15:48 36.21987 62.14844 35962 ft 441 kts 304°
2026-05-05 15:49 36.25630 62.08732 35948 ft 442 kts 304°
2026-05-05 15:49 36.29271 62.02612 35943 ft 442 kts 304°
2026-05-05 15:50 36.32922 61.96465 35930 ft 443 kts 304°
2026-05-05 15:50 36.36556 61.90335 35929 ft 442 kts 304°
2026-05-05 15:51 36.40205 61.84169 35922 ft 442 kts 304°
2026-05-05 15:51 36.43834 61.78025 35921 ft 444 kts 304°
2026-05-05 15:52 36.47473 61.71854 35911 ft 444 kts 304°
2026-05-05 15:52 36.51116 61.65665 35909 ft 444 kts 304°
2026-05-05 15:53 36.54765 61.59454 35905 ft 444 kts 304°
2026-05-05 15:53 36.58385 61.53281 35894 ft 446 kts 304°
2026-05-05 15:54 36.62040 61.47038 35896 ft 443 kts 304°
2026-05-05 15:54 36.65615 61.40813 35655 ft 446 kts 303°
2026-05-05 15:54 36.67390 61.37689 35865 ft 447 kts 303°
2026-05-05 15:55 36.69207 61.34493 35868 ft 447 kts 303°
2026-05-05 15:55 36.72778 61.28202 35880 ft 447 kts 303°
2026-05-05 15:56 36.76359 61.21886 35866 ft 446 kts 303°
2026-05-05 15:56 36.79914 61.15606 35858 ft 446 kts 303°
2026-05-05 15:57 36.83502 61.09255 35860 ft 446 kts 303°
2026-05-05 15:57 36.87061 61.02945 35861 ft 448 kts 303°
2026-05-05 15:58 36.90642 60.96584 35862 ft 447 kts 303°
2026-05-05 15:58 36.94204 60.90246 35860 ft 448 kts 303°
2026-05-05 15:59 36.97785 60.83862 35855 ft 450 kts 303°
2026-05-05 15:59 37.01624 60.77656 35866 ft 449 kts 306°
2026-05-05 16:00 37.05485 60.71536 35859 ft 450 kts 306°
2026-05-05 16:00 37.09357 60.65361 35861 ft 449 kts 306°
2026-05-05 16:01 37.13187 60.59227 35871 ft 450 kts 306°
2026-05-05 16:01 37.17041 60.53038 35873 ft 450 kts 306°
2026-05-05 16:02 37.20876 60.46862 35865 ft 450 kts 306°
2026-05-05 16:02 37.24714 60.40670 35871 ft 451 kts 306°
2026-05-05 16:03 37.28549 60.34468 35867 ft 450 kts 305°
2026-05-05 16:03 37.32393 60.28240 35866 ft 451 kts 305°
2026-05-05 16:04 37.36220 60.22029 35863 ft 450 kts 305°
2026-05-05 16:04 37.40035 60.15824 35860 ft 450 kts 305°
2026-05-05 16:05 37.43838 60.09629 35849 ft 451 kts 305°
2026-05-05 16:05 37.47679 60.03359 35844 ft 450 kts 305°
2026-05-05 16:05 37.49587 60.00240 36123 ft 450 kts 305°
2026-05-05 16:06 37.51500 59.97110 35693 ft 452 kts 305°
2026-05-05 16:06 37.53389 59.94015 35834 ft 450 kts 305°
2026-05-05 16:06 37.55321 59.90847 36115 ft 453 kts 305°
2026-05-05 16:06 37.57241 59.87696 35928 ft 453 kts 305°
2026-05-05 16:07 37.59140 59.84580 35861 ft 446 kts 305°
2026-05-05 16:07 37.62918 59.78365 35840 ft 454 kts 305°
2026-05-05 16:08 37.66721 59.72097 35856 ft 450 kts 305°
2026-05-05 16:08 37.70516 59.65831 35828 ft 452 kts 305°
2026-05-05 16:09 37.74322 59.59536 35827 ft 452 kts 305°
2026-05-05 16:09 37.78124 59.53236 35835 ft 451 kts 305°
2026-05-05 16:10 37.81905 59.46957 35842 ft 449 kts 304°
2026-05-05 16:10 37.85708 59.40631 35812 ft 450 kts 304°
2026-05-05 16:11 37.89437 59.34244 35797 ft 449 kts 300°
2026-05-05 16:12 37.95943 59.20843 35826 ft 448 kts 298°
2026-05-05 16:13 38.04062 59.03976 35802 ft 451 kts 298°
2026-05-05 16:13 38.07320 58.97183 35795 ft 449 kts 299°
2026-05-05 16:14 38.13796 58.83637 35800 ft 449 kts 298°
2026-05-05 16:15 38.20262 58.70057 35799 ft 450 kts 298°
2026-05-05 16:16 38.26699 58.56479 35809 ft 452 kts 298°
2026-05-05 16:17 38.31549 58.46212 35811 ft 452 kts 298°
2026-05-05 16:18 38.36367 58.35979 35821 ft 450 kts 298°
2026-05-05 16:19 38.40948 58.25565 35836 ft 449 kts 292°
2026-05-05 16:19 38.44803 58.14703 35834 ft 448 kts 292°
2026-05-05 16:20 38.49912 58.00226 35832 ft 448 kts 291°
2026-05-05 16:22 38.56249 57.82172 35836 ft 447 kts 291°
2026-05-05 16:23 38.61283 57.67759 35830 ft 444 kts 292°
2026-05-05 16:23 38.66016 57.57510 35603 ft 445 kts 298°
2026-05-05 16:24 38.67638 57.54143 35804 ft 447 kts 298°
2026-05-05 16:24 38.69252 57.50786 35832 ft 449 kts 298°
2026-05-05 16:25 38.74147 57.40580 35824 ft 449 kts 298°
2026-05-05 16:25 38.79005 57.30410 35827 ft 447 kts 297°
2026-05-05 16:26 38.85461 57.16839 35824 ft 445 kts 297°
2026-05-05 16:27 38.88660 57.10091 35810 ft 447 kts 297°
2026-05-05 16:27 38.91889 57.03266 35819 ft 446 kts 297°
2026-05-05 16:28 38.95080 56.96509 35812 ft 445 kts 296°
2026-05-05 16:28 38.98294 56.89688 35813 ft 444 kts 296°
2026-05-05 16:29 39.01477 56.82915 35807 ft 446 kts 296°
2026-05-05 16:29 39.04662 56.76128 35810 ft 444 kts 296°
2026-05-05 16:30 39.07863 56.69288 35809 ft 446 kts 296°
2026-05-05 16:30 39.11039 56.62491 35802 ft 444 kts 296°
2026-05-05 16:31 39.14201 56.55705 35804 ft 445 kts 296°
2026-05-05 16:31 39.17394 56.48841 35800 ft 444 kts 296°
2026-05-05 16:32 39.20535 56.42075 35803 ft 444 kts 295°
2026-05-05 16:32 39.23706 56.35225 35804 ft 445 kts 295°
2026-05-05 16:33 39.26853 56.28417 35814 ft 442 kts 295°
2026-05-05 16:33 39.29997 56.21599 35817 ft 441 kts 295°
2026-05-05 16:34 39.33123 56.14805 35822 ft 442 kts 294°
2026-05-05 16:34 39.36248 56.07996 35823 ft 441 kts 294°
2026-05-05 16:35 39.39382 56.01156 35828 ft 441 kts 295°
2026-05-05 16:35 39.42506 55.94321 35834 ft 444 kts 294°
2026-05-05 16:36 39.45633 55.87466 35838 ft 443 kts 295°
2026-05-05 16:36 39.48755 55.80608 35839 ft 442 kts 294°
2026-05-05 16:37 39.51932 55.73739 35838 ft 444 kts 295°
2026-05-05 16:37 39.55118 55.66887 35847 ft 448 kts 294°
2026-05-05 16:38 39.58318 55.59988 35844 ft 444 kts 294°
2026-05-05 16:38 39.61511 55.53079 35853 ft 452 kts 294°
2026-05-05 16:39 39.64724 55.46115 35852 ft 448 kts 295°
2026-05-05 16:39 39.67900 55.39213 35860 ft 451 kts 295°
2026-05-05 16:40 39.71087 55.32198 35874 ft 446 kts 293°
2026-05-05 16:40 39.74168 55.25203 35879 ft 454 kts 293°
2026-05-05 16:41 39.77291 55.18113 35874 ft 450 kts 293°
2026-05-05 16:41 39.80392 55.11010 35871 ft 451 kts 290°
2026-05-05 16:42 39.82454 55.03509 35869 ft 439 kts 276°
2026-05-05 16:42 39.82890 54.95716 35884 ft 429 kts 264°
2026-05-05 16:43 39.82678 54.87991 35893 ft 431 kts 264°
2026-05-05 16:43 39.82457 54.80272 35900 ft 426 kts 265°
2026-05-05 16:44 39.83109 54.72510 35910 ft 442 kts 278°
2026-05-05 16:44 39.84740 54.64833 35915 ft 439 kts 279°
2026-05-05 16:45 39.86377 54.57204 35921 ft 445 kts 279°
2026-05-05 16:45 39.88023 54.49483 35923 ft 440 kts 279°
2026-05-05 16:46 39.89650 54.41778 35918 ft 445 kts 279°
2026-05-05 16:46 39.91257 54.34108 35915 ft 438 kts 278°
2026-05-05 16:47 39.92860 54.26398 35921 ft 443 kts 279°
2026-05-05 16:47 39.94449 54.18746 35921 ft 440 kts 278°
2026-05-05 16:48 39.96063 54.10934 35922 ft 444 kts 278°
2026-05-05 16:48 39.97647 54.03246 35921 ft 442 kts 278°
2026-05-05 16:49 39.99233 53.95514 35920 ft 442 kts 278°
2026-05-05 16:49 40.00800 53.87849 35919 ft 443 kts 278°
2026-05-05 16:50 40.02377 53.80107 35919 ft 439 kts 278°
2026-05-05 16:50 40.03950 53.72342 35919 ft 446 kts 278°
2026-05-05 16:51 40.05513 53.64623 35919 ft 444 kts 278°
2026-05-05 16:51 40.07086 53.56809 35914 ft 443 kts 278°
2026-05-05 16:52 40.08638 53.49077 35911 ft 442 kts 278°
2026-05-05 16:52 40.10194 53.41284 35905 ft 444 kts 278°
2026-05-05 16:53 40.11751 53.33463 35905 ft 445 kts 277°
2026-05-05 16:53 40.13296 53.25668 35916 ft 448 kts 277°
2026-05-05 16:54 40.14840 53.17863 35924 ft 445 kts 277°
2026-05-05 16:54 40.16381 53.10033 35925 ft 444 kts 277°
2026-05-05 16:55 40.17907 53.02251 35926 ft 444 kts 277°
2026-05-05 16:55 40.19428 52.94463 35928 ft 445 kts 277°
2026-05-05 16:56 40.20950 52.86639 35929 ft 444 kts 277°
2026-05-05 16:56 40.22473 52.78773 35929 ft 448 kts 277°
2026-05-05 16:57 40.23984 52.70948 36247 ft 446 kts 277°
2026-05-05 16:57 40.24736 52.67036 35742 ft 448 kts 277°
2026-05-05 16:57 40.25496 52.63089 35790 ft 441 kts 277°
2026-05-05 16:58 40.26237 52.59225 35909 ft 444 kts 276°
2026-05-05 16:58 40.26989 52.55287 35926 ft 450 kts 277°
2026-05-05 16:58 40.28505 52.47382 36189 ft 443 kts 276°
2026-05-05 16:59 40.29249 52.43481 35671 ft 443 kts 277°
2026-05-05 16:59 40.29993 52.39575 35851 ft 443 kts 276°
2026-05-05 16:59 40.31482 52.31718 35933 ft 449 kts 276°
2026-05-05 17:00 40.32972 52.23851 35933 ft 443 kts 276°
2026-05-05 17:00 40.34444 52.16025 35940 ft 450 kts 276°
2026-05-05 17:01 40.35923 52.08153 35930 ft 442 kts 276°
2026-05-05 17:01 40.36660 52.04205 36139 ft 447 kts 276°
2026-05-05 17:01 40.37394 52.00271 35942 ft 445 kts 276°
2026-05-05 17:02 40.38117 51.96399 35758 ft 439 kts 275°
2026-05-05 17:02 40.38849 51.92457 35920 ft 444 kts 275°
2026-05-05 17:02 40.40305 51.84586 35940 ft 448 kts 276°
2026-05-05 17:03 40.41770 51.76650 35947 ft 448 kts 276°
2026-05-05 17:03 40.43215 51.68792 35945 ft 447 kts 275°
2026-05-05 17:04 40.44665 51.60870 35943 ft 444 kts 276°
2026-05-05 17:04 40.46100 51.52994 35947 ft 448 kts 276°
2026-05-05 17:05 40.47618 51.45040 35946 ft 450 kts 277°
2026-05-05 17:05 40.49242 51.37170 35949 ft 448 kts 277°
2026-05-05 17:06 40.50854 51.29280 35956 ft 448 kts 276°
2026-05-05 17:06 40.52455 51.21394 35964 ft 451 kts 276°
2026-05-05 17:07 40.54062 51.13443 35960 ft 447 kts 276°
2026-05-05 17:07 40.55644 51.05570 35962 ft 449 kts 276°
2026-05-05 17:08 40.57223 50.97679 35964 ft 448 kts 276°
2026-05-05 17:08 40.58806 50.89738 35962 ft 451 kts 276°
2026-05-05 17:09 40.60381 50.81811 35966 ft 449 kts 276°
2026-05-05 17:09 40.61946 50.73896 35964 ft 450 kts 276°
2026-05-05 17:10 40.63518 50.65908 35966 ft 451 kts 276°
2026-05-05 17:10 40.65076 50.57973 35963 ft 450 kts 276°
2026-05-05 17:11 40.66636 50.49989 35962 ft 452 kts 277°
2026-05-05 17:11 40.68195 50.41975 35966 ft 453 kts 277°
2026-05-05 17:12 40.69737 50.34008 35964 ft 450 kts 276°
2026-05-05 17:12 40.71281 50.25986 35969 ft 453 kts 276°
2026-05-05 17:13 40.72818 50.17978 35970 ft 452 kts 276°
2026-05-05 17:13 40.74356 50.09927 35967 ft 454 kts 276°
2026-05-05 17:14 40.75889 50.01872 35959 ft 455 kts 276°
2026-05-05 17:14 40.77420 49.93788 35971 ft 457 kts 276°
2026-05-05 17:15 40.78941 49.85741 35964 ft 453 kts 276°
2026-05-05 17:15 40.80452 49.77695 35983 ft 456 kts 276°
2026-05-05 17:16 40.81968 49.69599 35988 ft 454 kts 276°
2026-05-05 17:16 40.83478 49.61499 35987 ft 455 kts 276°
2026-05-05 17:17 40.84986 49.53366 35998 ft 457 kts 277°
2026-05-05 17:17 40.86480 49.45286 35991 ft 458 kts 277°
2026-05-05 17:18 40.87982 49.37123 35990 ft 458 kts 277°
2026-05-05 17:18 40.89431 49.28962 35998 ft 456 kts 275°
2026-05-05 17:19 40.90809 49.20801 36261 ft 460 kts 275°
2026-05-05 17:19 40.91507 49.16669 36745 ft 458 kts 275°
2026-05-05 17:19 40.92197 49.12585 37217 ft 455 kts 275°
2026-05-05 17:20 40.92884 49.08499 37523 ft 455 kts 275°
2026-05-05 17:20 40.93565 49.04447 37719 ft 458 kts 275°
2026-05-05 17:20 40.94247 49.00374 37922 ft 459 kts 275°
2026-05-05 17:20 40.94941 48.96225 38012 ft 463 kts 276°
2026-05-05 17:21 40.96323 48.87945 37989 ft 461 kts 276°
2026-05-05 17:22 40.98372 48.75598 38009 ft 461 kts 276°
2026-05-05 17:22 40.99739 48.67319 37991 ft 459 kts 276°
2026-05-05 17:23 41.01085 48.59111 38015 ft 463 kts 276°
2026-05-05 17:23 41.02438 48.50834 38041 ft 462 kts 276°
2026-05-05 17:24 41.03788 48.42537 38038 ft 460 kts 276°
2026-05-05 17:24 41.05118 48.34322 38051 ft 460 kts 275°
2026-05-05 17:25 41.06450 48.26056 38073 ft 458 kts 275°
2026-05-05 17:25 41.07777 48.17770 38074 ft 463 kts 275°
2026-05-05 17:26 41.09098 48.09499 38067 ft 457 kts 275°
2026-05-05 17:26 41.10405 48.01259 38049 ft 462 kts 275°
2026-05-05 17:27 41.11720 47.92937 38078 ft 460 kts 275°
2026-05-05 17:27 41.13017 47.84692 38034 ft 461 kts 275°
2026-05-05 17:28 41.14321 47.76365 38019 ft 461 kts 275°
2026-05-05 17:28 41.15611 47.68076 38029 ft 462 kts 275°
2026-05-05 17:29 41.16898 47.59778 38028 ft 462 kts 275°
2026-05-05 17:29 41.18189 47.51402 38036 ft 463 kts 276°
2026-05-05 17:30 41.19466 47.43082 38035 ft 461 kts 276°
2026-05-05 17:30 41.20742 47.34717 38019 ft 463 kts 275°
2026-05-05 17:31 41.22002 47.26416 38028 ft 464 kts 275°
2026-05-05 17:31 41.23273 47.18002 38005 ft 463 kts 275°
2026-05-05 17:32 41.24524 47.09679 38007 ft 465 kts 275°
2026-05-05 17:32 41.25779 47.01287 37973 ft 462 kts 275°
2026-05-05 17:33 41.27022 46.92930 37962 ft 464 kts 275°
2026-05-05 17:33 41.28265 46.84517 37957 ft 467 kts 275°
2026-05-05 17:34 41.29499 46.76141 37953 ft 464 kts 275°
2026-05-05 17:34 41.30702 46.67703 37954 ft 466 kts 275°
2026-05-05 17:35 41.31886 46.59242 37963 ft 466 kts 275°
2026-05-05 17:35 41.33058 46.50824 37958 ft 464 kts 275°
2026-05-05 17:36 41.34225 46.42399 37969 ft 468 kts 275°
2026-05-05 17:36 41.35395 46.33918 37961 ft 467 kts 275°
2026-05-05 17:37 41.36556 46.25451 37956 ft 468 kts 275°
2026-05-05 17:37 41.37715 46.16947 37948 ft 467 kts 275°
2026-05-05 17:38 41.38864 46.08467 37959 ft 468 kts 275°
2026-05-05 17:38 41.40009 45.99976 37962 ft 468 kts 275°
2026-05-05 17:39 41.41147 45.91481 37974 ft 469 kts 275°
2026-05-05 17:39 41.42289 45.82917 37973 ft 468 kts 275°
2026-05-05 17:40 41.43411 45.74438 37964 ft 469 kts 275°
2026-05-05 17:40 41.44534 45.65913 37970 ft 469 kts 275°
2026-05-05 17:41 41.45649 45.57389 37967 ft 469 kts 275°
2026-05-05 17:41 41.46764 45.48816 37975 ft 470 kts 275°
2026-05-05 17:42 41.47873 45.40237 37978 ft 471 kts 275°
2026-05-05 17:42 41.48839 45.31649 37988 ft 468 kts 271°
2026-05-05 17:43 41.49511 45.23007 37972 ft 468 kts 271°
2026-05-05 17:43 41.50184 45.14453 37970 ft 469 kts 272°
2026-05-05 17:44 41.50869 45.05803 37978 ft 469 kts 272°
2026-05-05 17:44 41.51553 44.97172 37960 ft 469 kts 272°
2026-05-05 17:45 41.52234 44.88522 37970 ft 470 kts 272°
2026-05-05 17:45 41.52912 44.79852 37968 ft 472 kts 272°
2026-05-05 17:46 41.53582 44.71208 37976 ft 472 kts 272°
2026-05-05 17:46 41.54253 44.62487 37985 ft 473 kts 272°
2026-05-05 17:47 41.54914 44.53797 37989 ft 473 kts 272°
2026-05-05 17:47 41.55568 44.45107 37992 ft 474 kts 272°
2026-05-05 17:48 41.56221 44.36358 37995 ft 475 kts 272°
2026-05-05 17:48 41.56867 44.27613 38000 ft 475 kts 271°
2026-05-05 17:49 41.57212 44.18888 38005 ft 472 kts 267°
2026-05-05 17:49 41.57240 44.10136 38004 ft 471 kts 266°
2026-05-05 17:50 41.57257 44.01419 38003 ft 472 kts 267°
2026-05-05 17:50 41.57270 43.92670 38000 ft 472 kts 267°
2026-05-05 17:51 41.57275 43.83873 38003 ft 474 kts 266°
2026-05-05 17:51 41.57275 43.75159 38006 ft 474 kts 266°
2026-05-05 17:52 41.57268 43.66351 38005 ft 475 kts 267°
2026-05-05 17:52 41.57254 43.57528 38005 ft 478 kts 267°
2026-05-05 17:53 41.57235 43.48747 38006 ft 476 kts 267°
2026-05-05 17:53 41.57208 43.39958 38009 ft 475 kts 267°
2026-05-05 17:54 41.57174 43.31168 38016 ft 476 kts 266°
2026-05-05 17:54 41.57133 43.22314 38019 ft 476 kts 266°
2026-05-05 17:55 41.57086 43.13531 38019 ft 477 kts 266°
2026-05-05 17:55 41.57032 43.04715 38018 ft 477 kts 266°
2026-05-05 17:56 41.56971 42.95875 38022 ft 478 kts 266°
2026-05-05 17:56 41.56904 42.87038 38028 ft 479 kts 266°
2026-05-05 17:57 41.56829 42.78146 38024 ft 479 kts 266°
2026-05-05 17:57 41.56748 42.69313 38021 ft 479 kts 266°
2026-05-05 17:58 41.56660 42.60449 38013 ft 480 kts 266°
2026-05-05 17:58 41.56565 42.51571 38005 ft 480 kts 266°
2026-05-05 17:59 41.56462 42.42670 38005 ft 481 kts 266°
2026-05-05 17:59 41.56354 42.33794 38000 ft 480 kts 266°
2026-05-05 18:00 41.56237 42.24884 38003 ft 482 kts 266°
2026-05-05 18:00 41.56115 42.15986 37995 ft 482 kts 266°
2026-05-05 18:01 41.55985 42.07033 37997 ft 482 kts 266°
2026-05-05 18:01 41.55848 41.98161 38023 ft 481 kts 266°
2026-05-05 18:02 41.55705 41.89254 38015 ft 482 kts 266°
2026-05-05 18:02 41.55553 41.80318 38020 ft 483 kts 266°
2026-05-05 18:03 41.55396 41.71417 38023 ft 483 kts 266°
2026-05-05 18:03 41.55232 41.62491 38027 ft 483 kts 266°
2026-05-05 18:04 41.55060 41.53541 38026 ft 483 kts 266°
2026-05-05 18:04 41.54881 41.44599 38031 ft 483 kts 266°
2026-05-05 18:05 41.55267 41.35677 38036 ft 486 kts 273°
2026-05-05 18:05 41.55857 41.26741 38034 ft 486 kts 272°
2026-05-05 18:06 41.56409 41.17741 38030 ft 486 kts 272°
2026-05-05 18:06 41.56933 41.08763 38027 ft 486 kts 272°
2026-05-05 18:07 41.57437 40.99840 38032 ft 487 kts 272°
2026-05-05 18:07 41.57935 40.90801 38037 ft 487 kts 272°
2026-05-05 18:08 41.58418 40.81868 38034 ft 486 kts 272°
2026-05-05 18:08 41.58895 40.72877 38040 ft 487 kts 272°
2026-05-05 18:09 41.59365 40.63868 38032 ft 487 kts 272°
2026-05-05 18:09 41.59826 40.54884 38043 ft 488 kts 272°
2026-05-05 18:10 41.60281 40.45885 38026 ft 487 kts 272°
2026-05-05 18:10 41.60728 40.36882 38040 ft 488 kts 272°
2026-05-05 18:11 41.61167 40.27907 38044 ft 487 kts 271°
2026-05-05 18:11 41.61602 40.18874 38046 ft 487 kts 272°
2026-05-05 18:12 41.62027 40.09895 38038 ft 488 kts 271°
2026-05-05 18:12 41.62448 40.00849 38053 ft 489 kts 272°
2026-05-05 18:13 41.62861 39.91835 38035 ft 488 kts 272°
2026-05-05 18:13 41.63265 39.82844 38049 ft 488 kts 272°
2026-05-05 18:14 41.63664 39.73819 38047 ft 487 kts 272°
2026-05-05 18:14 41.64056 39.64796 38038 ft 487 kts 272°
2026-05-05 18:15 41.64439 39.55815 38038 ft 488 kts 272°
2026-05-05 18:15 41.64816 39.46767 38034 ft 488 kts 272°
2026-05-05 18:16 41.65184 39.37785 38041 ft 488 kts 272°
2026-05-05 18:16 41.65548 39.28719 38039 ft 489 kts 271°
2026-05-05 18:17 41.65904 39.19666 38042 ft 488 kts 271°
2026-05-05 18:17 41.66252 39.10662 38044 ft 487 kts 271°
2026-05-05 18:18 41.66594 39.01611 38042 ft 488 kts 271°
2026-05-05 18:18 41.66927 38.92616 38042 ft 487 kts 271°
2026-05-05 18:19 41.67253 38.83603 38041 ft 488 kts 271°
2026-05-05 18:19 41.67572 38.74603 38039 ft 490 kts 271°
2026-05-05 18:20 41.67887 38.65506 38040 ft 488 kts 271°
2026-05-05 18:20 41.68191 38.56534 38036 ft 488 kts 271°
2026-05-05 18:21 41.68490 38.47503 38040 ft 488 kts 271°
2026-05-05 18:21 41.68782 38.38454 38039 ft 488 kts 271°
2026-05-05 18:22 41.69067 38.29407 38041 ft 489 kts 271°
2026-05-05 18:22 41.69345 38.20385 38039 ft 489 kts 271°
2026-05-05 18:23 41.69616 38.11337 38040 ft 489 kts 271°
2026-05-05 18:23 41.69879 38.02312 38037 ft 490 kts 271°
2026-05-05 18:24 41.70136 37.93251 38041 ft 489 kts 271°
2026-05-05 18:24 41.70385 37.84197 38043 ft 488 kts 271°
2026-05-05 18:25 41.70627 37.75185 38043 ft 489 kts 271°
2026-05-05 18:25 41.69988 37.66224 38042 ft 487 kts 255°
2026-05-05 18:26 41.67473 37.57863 38051 ft 486 kts 243°
2026-05-05 18:26 41.64417 37.49912 38048 ft 486 kts 242°
2026-05-05 18:27 41.61312 37.41938 38052 ft 486 kts 242°
2026-05-05 18:27 41.58168 37.33927 38053 ft 486 kts 241°
2026-05-05 18:28 41.53455 37.21988 38058 ft 486 kts 242°
2026-05-05 18:28 41.50326 37.14097 38059 ft 485 kts 242°
2026-05-05 18:29 41.47159 37.06137 38061 ft 486 kts 242°
2026-05-05 18:29 41.44004 36.98231 38068 ft 486 kts 242°
2026-05-05 18:30 41.40842 36.90331 38066 ft 486 kts 242°
2026-05-05 18:30 41.37672 36.82433 38067 ft 486 kts 242°
2026-05-05 18:31 41.34498 36.74544 38066 ft 487 kts 242°
2026-05-05 18:31 41.31319 36.66668 38066 ft 487 kts 242°
2026-05-05 18:32 41.28355 36.58616 38064 ft 485 kts 251°
2026-05-05 18:32 41.27065 36.49907 38061 ft 486 kts 268°
2026-05-05 18:33 41.27470 36.40963 38060 ft 486 kts 276°
2026-05-05 18:33 41.28116 36.32178 38063 ft 485 kts 275°
2026-05-05 18:34 41.28754 36.23225 38061 ft 487 kts 275°
2026-05-05 18:34 41.29375 36.14296 38054 ft 488 kts 275°
2026-05-05 18:35 41.29990 36.05286 38049 ft 489 kts 275°
2026-05-05 18:35 41.30590 35.96365 38036 ft 488 kts 275°
2026-05-05 18:36 41.31182 35.87421 38039 ft 485 kts 275°
2026-05-05 18:36 41.31764 35.78536 38036 ft 486 kts 275°
2026-05-05 18:37 41.32340 35.69612 38038 ft 487 kts 275°
2026-05-05 18:37 41.32911 35.60666 38050 ft 488 kts 275°
2026-05-05 18:38 41.33479 35.51639 38053 ft 488 kts 275°
2026-05-05 18:38 41.34037 35.42677 38054 ft 489 kts 275°
2026-05-05 18:39 41.34588 35.33705 38057 ft 488 kts 275°
2026-05-05 18:39 41.35132 35.24721 38056 ft 488 kts 275°
2026-05-05 18:40 41.35667 35.15786 38047 ft 488 kts 275°
2026-05-05 18:40 41.36198 35.06798 38047 ft 488 kts 275°
2026-05-05 18:41 41.36722 34.97792 38049 ft 487 kts 275°
2026-05-05 18:41 41.37234 34.88890 38042 ft 487 kts 275°
2026-05-05 18:42 41.37746 34.79853 38040 ft 488 kts 275°
2026-05-05 18:42 41.38246 34.70911 38033 ft 488 kts 275°
2026-05-05 18:43 41.38742 34.61918 38032 ft 488 kts 275°
2026-05-05 18:43 41.39230 34.52933 38026 ft 487 kts 275°
2026-05-05 18:44 41.39710 34.43974 38020 ft 487 kts 275°
2026-05-05 18:44 41.40251 34.35057 38019 ft 487 kts 281°
2026-05-05 18:45 41.42073 34.26422 38022 ft 486 kts 290°
2026-05-05 18:45 41.44295 34.17941 38038 ft 486 kts 290°
2026-05-05 18:46 41.46493 34.09484 38029 ft 485 kts 290°
2026-05-05 18:46 41.48688 34.01004 38039 ft 486 kts 290°
2026-05-05 18:47 41.50876 33.92503 38042 ft 486 kts 290°
2026-05-05 18:47 41.53041 33.84049 38044 ft 485 kts 290°
2026-05-05 18:48 41.55211 33.75542 38030 ft 485 kts 290°
2026-05-05 18:48 41.57367 33.67056 38027 ft 485 kts 290°
2026-05-05 18:49 41.59522 33.58541 38026 ft 484 kts 290°
2026-05-05 18:49 41.61666 33.50058 38027 ft 483 kts 290°
2026-05-05 18:50 41.63805 33.41540 38030 ft 483 kts 291°
2026-05-05 18:50 41.65929 33.33052 38022 ft 482 kts 290°
2026-05-05 18:51 41.68055 33.24528 38015 ft 483 kts 290°
2026-05-05 18:51 41.70150 33.16092 38023 ft 482 kts 290°
2026-05-05 18:52 41.72253 33.07579 38018 ft 482 kts 289°
2026-05-05 18:52 41.73268 32.98710 38024 ft 486 kts 273°
2026-05-05 18:53 41.73202 32.89697 38012 ft 488 kts 271°
2026-05-05 18:53 41.73093 32.80681 38020 ft 487 kts 271°
2026-05-05 18:54 41.72975 32.71651 38009 ft 486 kts 272°
2026-05-05 18:54 41.72850 32.62625 38023 ft 486 kts 271°
2026-05-05 18:55 41.72717 32.53609 38040 ft 485 kts 271°
2026-05-05 18:55 41.72577 32.44582 38034 ft 486 kts 271°
2026-05-05 18:56 41.72430 32.35555 38062 ft 487 kts 271°
2026-05-05 18:56 41.71733 32.26627 38057 ft 492 kts 259°
2026-05-05 18:57 41.70151 32.17700 37998 ft 491 kts 259°
2026-05-05 18:57 41.68556 32.08881 38067 ft 492 kts 259°
2026-05-05 18:58 41.66951 32.00044 38068 ft 490 kts 259°
2026-05-05 18:58 41.65336 31.91199 38061 ft 490 kts 259°
2026-05-05 18:59 41.63715 31.82358 38063 ft 491 kts 259°
2026-05-05 18:59 41.62086 31.73518 38065 ft 491 kts 259°
2026-05-05 19:00 41.60449 31.64679 38062 ft 490 kts 259°
2026-05-05 19:00 41.58814 31.55888 38074 ft 490 kts 259°
2026-05-05 19:01 41.57173 31.47109 38067 ft 489 kts 259°
2026-05-05 19:01 41.55553 31.38330 38011 ft 489 kts 262°
2026-05-05 19:02 41.55111 31.33879 37532 ft 495 kts 270°
2026-05-05 19:02 41.55165 31.29302 36927 ft 498 kts 277°
2026-05-05 19:02 41.55464 31.24728 36319 ft 495 kts 278°
2026-05-05 19:02 41.55780 31.20151 35804 ft 492 kts 278°
2026-05-05 19:03 41.56085 31.15664 35407 ft 489 kts 278°
2026-05-05 19:03 41.56381 31.11204 34929 ft 486 kts 278°
2026-05-05 19:03 41.56672 31.06751 34417 ft 483 kts 278°
2026-05-05 19:03 41.56961 31.02269 33790 ft 480 kts 278°
2026-05-05 19:04 41.57239 30.97894 33167 ft 477 kts 278°
2026-05-05 19:04 41.57515 30.93498 32540 ft 474 kts 278°
2026-05-05 19:04 41.57785 30.89167 31919 ft 471 kts 278°
2026-05-05 19:04 41.58052 30.84847 31296 ft 469 kts 278°
2026-05-05 19:05 41.58315 30.80561 30665 ft 466 kts 278°
2026-05-05 19:05 41.58577 30.76250 30004 ft 464 kts 278°
2026-05-05 19:05 41.58834 30.71992 29337 ft 462 kts 278°
2026-05-05 19:05 41.59088 30.67744 28670 ft 460 kts 278°
2026-05-05 19:06 41.59293 30.63506 28136 ft 455 kts 277°
2026-05-05 19:06 41.59442 30.59366 28045 ft 440 kts 276°
2026-05-05 19:06 41.59586 30.55307 27496 ft 437 kts 276°
2026-05-05 19:06 41.59732 30.51264 26710 ft 439 kts 276°
2026-05-05 19:07 41.59879 30.47213 25917 ft 441 kts 276°
2026-05-05 19:07 41.60026 30.43144 25124 ft 443 kts 276°
2026-05-05 19:07 41.60173 30.39037 24339 ft 444 kts 276°
2026-05-05 19:07 41.60390 30.34984 23567 ft 442 kts 281°
2026-05-05 19:08 41.61064 30.31024 22855 ft 436 kts 291°
2026-05-05 19:08 41.62229 30.27310 22213 ft 429 kts 301°
2026-05-05 19:08 41.63826 30.23994 21581 ft 423 kts 310°
2026-05-05 19:08 41.65744 30.21087 20954 ft 417 kts 315°
2026-05-05 19:09 41.67729 30.18294 20326 ft 414 kts 316°
2026-05-05 19:09 41.69685 30.15512 19700 ft 412 kts 312°
2026-05-05 19:09 41.71337 30.12406 19069 ft 412 kts 302°
2026-05-05 19:09 41.72529 30.08982 18450 ft 412 kts 292°
2026-05-05 19:10 41.73245 30.05253 17831 ft 412 kts 281°
2026-05-05 19:10 41.73434 30.01472 17216 ft 411 kts 270°
2026-05-05 19:10 41.73107 29.97716 16602 ft 412 kts 260°
2026-05-05 19:10 41.72249 29.94064 16129 ft 408 kts 249°
2026-05-05 19:11 41.70934 29.90831 16053 ft 393 kts 238°
2026-05-05 19:11 41.69229 29.88022 16049 ft 377 kts 227°
2026-05-05 19:11 41.67364 29.85690 16059 ft 366 kts 224°
2026-05-05 19:11 41.65581 29.83331 16057 ft 351 kts 230°
2026-05-05 19:12 41.64084 29.80910 16053 ft 334 kts 236°
2026-05-05 19:12 41.62878 29.78339 16058 ft 325 kts 247°
2026-05-05 19:12 41.62114 29.75501 16007 ft 326 kts 259°
2026-05-05 19:12 41.61722 29.72502 15459 ft 331 kts 267°
2026-05-05 19:13 41.61524 29.69442 14840 ft 336 kts 270°
2026-05-05 19:13 41.61392 29.66318 14219 ft 340 kts 270°
2026-05-05 19:13 41.61275 29.63130 13591 ft 345 kts 270°
2026-05-05 19:13 41.61111 29.59976 12968 ft 350 kts 264°
2026-05-05 19:14 41.60349 29.56852 12330 ft 358 kts 245°
2026-05-05 19:14 41.58911 29.54146 11910 ft 358 kts 228°
2026-05-05 19:14 41.57074 29.52017 11739 ft 347 kts 220°
2026-05-05 19:14 41.55208 29.50047 11568 ft 337 kts 220°
2026-05-05 19:15 41.53390 29.48088 11372 ft 328 kts 221°
2026-05-05 19:15 41.51675 29.46196 11178 ft 320 kts 222°
2026-05-05 19:15 41.49984 29.44301 10979 ft 312 kts 223°
2026-05-05 19:15 41.48347 29.42452 10784 ft 309 kts 223°
2026-05-05 19:16 41.46701 29.40590 10585 ft 307 kts 223°
2026-05-05 19:16 41.45081 29.38757 10386 ft 306 kts 223°
2026-05-05 19:16 41.43470 29.36940 10186 ft 306 kts 221°
2026-05-05 19:16 41.41761 29.35255 10015 ft 303 kts 218°
2026-05-05 19:17 41.40029 29.33616 9999 ft 307 kts 217°
2026-05-05 19:17 41.38303 29.31959 9993 ft 306 kts 218°
2026-05-05 19:17 41.36529 29.30420 9982 ft 307 kts 205°
2026-05-05 19:17 41.34449 29.29750 9995 ft 308 kts 185°
2026-05-05 19:18 41.32315 29.29622 9993 ft 308 kts 180°
2026-05-05 19:18 41.30172 29.29609 9994 ft 308 kts 179°
2026-05-05 19:18 41.28041 29.29611 9994 ft 309 kts 179°
2026-05-05 19:18 41.25890 29.29613 9996 ft 308 kts 179°
2026-05-05 19:19 41.23773 29.29917 9982 ft 306 kts 160°
2026-05-05 19:19 41.21951 29.31238 9985 ft 301 kts 137°
2026-05-05 19:19 41.20436 29.33134 9995 ft 299 kts 130°
2026-05-05 19:19 41.19014 29.35153 9989 ft 299 kts 129°
2026-05-05 19:20 41.17613 29.37201 9987 ft 299 kts 129°
2026-05-05 19:20 41.16177 29.39208 9988 ft 301 kts 137°
2026-05-05 19:20 41.14482 29.40851 9991 ft 303 kts 144°
2026-05-05 19:20 41.12718 29.42357 9991 ft 303 kts 145°
2026-05-05 19:21 41.10961 29.43840 9986 ft 302 kts 145°
2026-05-05 19:21 41.09169 29.45364 9985 ft 303 kts 145°
2026-05-05 19:21 41.07331 29.46725 9982 ft 304 kts 156°
2026-05-05 19:21 41.05358 29.47653 9993 ft 305 kts 160°
2026-05-05 19:22 41.03345 29.48500 9987 ft 304 kts 161°
2026-05-05 19:22 41.01331 29.49344 9985 ft 302 kts 161°
2026-05-05 19:22 40.99302 29.50201 9983 ft 303 kts 161°
2026-05-05 19:22 40.97257 29.50742 9981 ft 304 kts 174°
2026-05-05 19:23 40.95132 29.50920 9990 ft 304 kts 177°
2026-05-05 19:23 40.93026 29.50891 9974 ft 303 kts 191°
2026-05-05 19:23 40.91080 29.49874 9971 ft 301 kts 217°
2026-05-05 19:23 40.89651 29.47943 9863 ft 301 kts 240°
2026-05-05 19:24 40.88895 29.45375 9357 ft 299 kts 264°
2026-05-05 19:24 40.88770 29.42652 8939 ft 295 kts 274°
2026-05-05 19:24 40.88858 29.39987 8713 ft 288 kts 276°
2026-05-05 19:24 40.89000 29.37384 8568 ft 282 kts 277°
2026-05-05 19:25 40.89154 29.34802 8394 ft 281 kts 277°
2026-05-05 19:25 40.89307 29.32270 8219 ft 280 kts 277°
2026-05-05 19:25 40.89462 29.29696 8038 ft 279 kts 277°
2026-05-05 19:25 40.89613 29.27164 7863 ft 278 kts 277°
2026-05-05 19:26 40.89765 29.24627 7686 ft 277 kts 277°
2026-05-05 19:26 40.89916 29.22083 7506 ft 276 kts 277°
2026-05-05 19:26 40.90065 29.19577 7327 ft 275 kts 277°
2026-05-05 19:26 40.90212 29.17077 7149 ft 274 kts 277°
2026-05-05 19:27 40.90361 29.14541 6968 ft 274 kts 277°
2026-05-05 19:27 40.90508 29.12039 6789 ft 274 kts 277°
2026-05-05 19:27 40.90654 29.09544 6612 ft 274 kts 277°
2026-05-05 19:27 40.90801 29.07020 6432 ft 273 kts 277°
2026-05-05 19:28 40.90943 29.04550 6254 ft 272 kts 277°
2026-05-05 19:28 40.91089 29.02051 6072 ft 271 kts 278°
2026-05-05 19:28 40.91451 28.99650 5895 ft 267 kts 289°
2026-05-05 19:28 40.91993 28.97310 5716 ft 266 kts 290°
2026-05-05 19:29 40.92543 28.95003 5538 ft 265 kts 290°
2026-05-05 19:29 40.93097 28.92659 5358 ft 264 kts 290°
2026-05-05 19:29 40.93637 28.90356 5180 ft 263 kts 290°
2026-05-05 19:29 40.94175 28.88056 5024 ft 263 kts 290°
2026-05-05 19:30 40.94714 28.85749 4647 ft 264 kts 290°
2026-05-05 19:30 40.95250 28.83448 4153 ft 262 kts 290°
2026-05-05 19:30 40.95780 28.81184 4014 ft 259 kts 293°
2026-05-05 19:30 40.96434 28.79006 3996 ft 249 kts 300°
2026-05-05 19:31 40.97224 28.77046 3993 ft 234 kts 301°
2026-05-05 19:31 40.98134 28.75389 3980 ft 217 kts 326°
2026-05-05 19:31 40.99455 28.74574 3971 ft 202 kts 355°
2026-05-05 19:31 41.00782 28.74891 3982 ft 194 kts 26°
2026-05-05 19:32 41.01983 28.75675 3996 ft 192 kts 18°
2026-05-05 19:32 41.03285 28.76019 4018 ft 194 kts
2026-05-05 19:32 41.04621 28.76086 3999 ft 191 kts
2026-05-05 19:32 41.05935 28.76074 3997 ft 190 kts 360°
2026-05-05 19:33 41.07273 28.76044 3997 ft 190 kts 360°
2026-05-05 19:33 41.08598 28.76013 3787 ft 191 kts 360°
2026-05-05 19:33 41.09901 28.75984 3540 ft 185 kts 360°
2026-05-05 19:33 41.11183 28.75959 3305 ft 179 kts 360°
2026-05-05 19:34 41.12413 28.75935 3079 ft 174 kts
2026-05-05 19:34 41.13605 28.75912 2854 ft 170 kts 360°
2026-05-05 19:34 41.14767 28.75890 2636 ft 163 kts 360°
2026-05-05 19:35 41.16862 28.75849 2222 ft 143 kts
2026-05-05 19:35 41.17858 28.75831 2047 ft 140 kts
2026-05-05 19:35 41.18797 28.75813 1861 ft 135 kts
2026-05-05 19:35 41.19728 28.75795 1679 ft 134 kts
2026-05-05 19:36 41.20670 28.75777 1492 ft 136 kts
2026-05-05 19:36 41.21620 28.75759 1296 ft 136 kts
2026-05-05 19:36 41.22580 28.75761 1082 ft 137 kts
2026-05-05 19:36 41.23528 28.75759 894 ft 138 kts 360°
2026-05-05 19:37 41.24484 28.75712 718 ft 138 kts 357°
2026-05-05 19:37 41.25456 28.75680 537 ft 139 kts 360°
2026-05-05 19:37 41.26413 28.75675 341 ft 137 kts 359°
2026-05-05 19:37 41.27230 28.75650 340 ft 95 kts 358°
2026-05-05 19:38 41.27736 28.75641 340 ft 48 kts 359°
2026-05-05 19:38 41.27943 28.75621 340 ft 21 kts 341°
2026-05-05 19:38 41.28075 28.75549 340 ft 19 kts 333°
2026-05-05 19:38 41.28144 28.75479 340 ft 7 kts 315°
2026-05-05 19:39 41.28162 28.75419 340 ft 7 kts 266°
2026-05-05 19:39 41.28138 28.75368 340 ft 6 kts 214°
2026-05-05 19:39 41.28093 28.75348 340 ft 7 kts 186°
2026-05-05 19:39 41.28025 28.75350 340 ft 15 kts 176°
2026-05-05 19:40 41.27887 28.75356 340 ft 20 kts 179°
2026-05-05 19:40 41.27749 28.75358 340 ft 19 kts 180°
2026-05-05 19:40 41.27614 28.75358 340 ft 21 kts 180°
2026-05-05 19:40 41.27444 28.75362 340 ft 25 kts 179°
2026-05-05 19:41 41.27275 28.75365 340 ft 23 kts 179°
2026-05-05 19:41 41.27124 28.75368 340 ft 12 kts 179°
2026-05-05 19:41 41.27071 28.75349 340 ft 7 kts 226°
2026-05-05 19:41 41.27057 28.75278 340 ft 10 kts 267°
2026-05-05 19:42 41.27054 28.75129 340 ft 17 kts 269°
2026-05-05 19:42 41.27053 28.74971 340 ft 16 kts 269°
2026-05-05 19:42 41.27051 28.74818 340 ft 17 kts 269°
2026-05-05 19:42 41.27049 28.74656 340 ft 18 kts 269°
2026-05-05 19:43 41.27046 28.74489 340 ft 17 kts 269°
2026-05-05 19:43 41.27045 28.74331 340 ft 16 kts 269°
2026-05-05 19:43 41.27043 28.74159 340 ft 20 kts 269°
2026-05-05 19:43 41.27042 28.73974 340 ft 19 kts 270°
2026-05-05 19:44 41.27040 28.73797 340 ft 19 kts 269°
2026-05-05 19:44 41.27038 28.73621 340 ft 18 kts 269°
2026-05-05 19:44 41.27036 28.73454 340 ft 17 kts 269°
2026-05-05 19:44 41.27007 28.73338 340 ft 13 kts 199°
2026-05-05 19:45 41.26911 28.73329 340 ft 13 kts 182°
2026-05-05 19:45 41.26821 28.73331 340 ft 12 kts 179°
2026-05-05 19:45 41.26728 28.73333 340 ft 14 kts 179°
2026-05-05 19:45 41.26629 28.73336 340 ft 13 kts 171°
2026-05-05 19:46 41.26603 28.73386 340 ft 5 kts 90°
2026-05-05 19:46 41.26613 28.73438 340 ft 3 kts 72°
2026-05-05 19:46 41.26617 28.73457 340 ft 1 kts 72°
2026-05-05 19:46 41.26618 28.73461 340 ft 0 kts 72°